sat.trackr.live / text

‹ back to catalog

STARLINK-34597

NORAD 64738 · 2025-144Q

PAYLOAD ACTIVE UNKNOWN

§ Identity

Operator
Country
US
Launch date
2025-07-02
Launch site
AFETR
Launch vehicle
Mass (kg)
RCS (m²)

Purposes: comms

External: N2YO · Heavens-Above · Gunter

§ Orbital elements

Epoch: 2026-09-20T17:51:22.909824Z

Period
93.85 min
Inclination
53.1601°
Eccentricity
0.0001746
Mean motion
15.34403138 rev/d
Perigee alt
461.5 km
Apogee alt
463.9 km
Semi-major
6,840.8 km
B*
4.5143e-4
RAAN
352.3304°
Arg perigee
47.5389°
Mean anomaly
312.5761°
Rev number
6,959

§ Raw data

STARLINK-345971 64738U 25144Q   26263.74401516  .00014908  00000+0  45143-3 0  99922 64738  53.1601 352.3304 0001746  47.5389 312.5761 15.34403138 69596

JSON: /api/v1/satellites/64738 · /tle

For live sub-satellite position, see the globe view (requires WebGL).

§ Visibility from observer

Set your observer location to see the next 7 days of passes ≥ 10°. The values pass through the URL so the page stays shareable.

No JS? Fill the form by hand. The geolocation button needs JavaScript.